Location: Sommers-Bausch Observatory
(40.0037°N, 105.2635°W)
Time: 00:25:10
(UTC-06:00)

Daily predictions for brighter satellites

Satellite Brightness Start Highest point End
(mag) Time Altitude Azimuth Time Altitude Azimuth Time Altitude Azimuth
Cosmos 1980 Rocket 4.2 03:16:20 23° NNE 03:16:20 23° NNE 03:18:23 10° NNE
CENTAUR R/B 3.8 03:16:52 37° NE 03:16:52 37° NE 03:20:54 10° NE
CZ-2D R/B 4.2 03:12:21 10° NNE 03:14:34 24° NNE 03:14:34 24° NNE
USA 215 4.4 03:12:05 10° E 03:18:01 38° NNE 03:21:05 25° NNW
ADEOS Rocket 4.5 03:15:59 10° NNE 03:18:51 28° NE 03:18:51 28° NE
Resurs 1-4 Rocket 4.1 03:20:27 10° NNE 03:22:24 23° NNE 03:22:24 23° NNE
SL-16 R/B 4.1 03:30:19 26° NNW 03:30:19 26° NNW 03:32:47 10° NNW
Cosmos 2263 Rocket 3.8 03:26:35 10° N 03:38:11 - SE 03:31:15 30° NE
ADEOS II 4.4 03:51:11 10° NE 03:54:54 19° E 03:57:25 14° SE
Lacrosse 5 3.1 04:23:59 32° SE 04:23:59 32° SE 04:26:43 10° SE
Cosmos 2322 Rocket 2.7 04:24:26 47° NNW 04:24:26 47° NNW 04:28:44 10° NNE
MOS 1 Rocket 3.9 04:18:47 10° NNE 04:22:42 52° NE 04:22:42 52° NE
Okean O Rocket 2.7 04:20:50 10° NNE 04:25:01 40° E 04:25:11 39° ESE
SL-16 R/B 2.7 04:27:31 48° NNW 04:27:31 48° NNW 04:32:02 10° NNE
Cosmos 2184 Rocket 4.2 04:28:48 10° N 04:35:00 70° E 04:41:14 10° SSE
CZ-4B R/B 4.2 04:33:18 10° NNE 04:35:47 35° NE 04:35:47 35° NE
Cosmos 1812 4.2 04:52:32 29° N 04:52:32 29° N 04:54:33 10° N
Cosmos 1455 Rocket 3.2 04:47:35 10° N 04:52:00 71° E 04:54:00 32° SSE
Cosmos 2360 Rocket 2.0 04:54:36 56° SW 04:55:50 81° WNW 05:01:31 10° NNE
Tiangong 2 2.7 04:57:42 34° NE 04:57:42 34° NE 04:59:49 10° E
CZ-2D R/B 3.9 04:53:31 10° NNW 04:55:55 18° NW 04:55:55 18° NW
Cosmos 1980 Rocket 4.2 04:58:06 13° NW 04:58:06 13° NW 05:00:14 10° NNW
USA 215 3.1 04:54:09 10° SE 05:00:41 74° SW 05:07:16 10° NW
IRS-1C Rocket 4.1 04:55:51 10° NNE 05:01:09 83° ESE 05:03:50 30° S
Meteor 1-12 Rocket 4.1 04:56:44 10° N 05:02:25 89° WSW 05:08:07 10° S
Resurs 1-4 Rocket 4.1 05:01:55 10° NNW 05:03:30 14° NW 05:03:30 14° NW
CENTAUR R/B 3.8 05:04:02 23° WNW 05:05:35 26° NW 05:11:17 10° NNE
PAYLOAD B 4.2 05:00:12 10° NNE 05:05:51 88° WNW 05:09:11 26° SSW
ADEOS Rocket 4.2 05:02:21 10° NNW 05:05:48 22° NW 05:05:48 22° NW
Cosmos 1570 Rocket 4.3 05:04:36 22° S 05:07:58 66° ESE 05:13:09 10° NNE
Cosmos 2154 Rocket 4.3 05:02:19 10° N 05:08:30 68° E 05:14:39 10° SSE
Cosmos 1340 2.5 05:09:45 73° NW 05:09:45 73° NW 05:13:23 10° N
Meteor 1-18 Rocket 4.2 05:09:29 42° SW 05:11:07 58° WNW 05:16:38 10° N
Meteor 1-31 Rocket 4.4 05:08:53 10° NNE 05:12:21 33° E 05:15:47 10° SSE
ISS -3.7 05:13:35 68° SE 05:13:35 68° SE 05:16:31 10° SE
Cosmos 2263 Rocket 3.5 05:10:22 10° NW 05:20:17 11° S 05:20:28 10° S
Cosmos 1743 3.6 05:11:54 10° N 05:15:41 50° E 05:19:25 10° SSE
Cosmos 1536 Rocket 3.4 05:13:59 37° SSW 05:15:42 77° W 05:20:11 10° N
Cosmos 2333 Rocket 4.0 05:12:36 10° SSE 05:17:27 30° ESE 05:22:21 10° NE
Okean 1 3.6 05:19:48 47° WNW 05:19:48 47° WNW 05:23:39 10° N
EO 1 Del DPAF 3.2 05:19:45 43° SSW 05:20:43 59° W 05:24:32 10° NNW
Lacrosse 4 Rocket 1.5 05:18:27 10° NNW 05:22:39 76° ENE 05:26:55 10° SSE
ATLAS 5 CENTAUR R/B 4.4 05:18:35 10° NNW 05:23:36 27° NE 05:28:57 10° E
CZ-2C R/B 3.6 05:21:24 10° S 05:25:59 67° WSW 05:30:31 10° NNW
Cosmos 2322 3.9 05:24:21 32° WSW 05:26:46 53° WNW 05:32:22 10° NNE
Meteor 1-13 Rocket 4.2 05:22:06 10° S 05:27:37 80° E 05:33:12 10° NNE
Cosmos 1975 3.1 05:25:55 10° NNW 05:29:47 43° W 05:30:45 36° SW
Cosmos 1610 Rocket 4.5 05:23:51 10° NNW 05:30:01 62° W 05:36:13 10° S
BREEZE-M DEB (TANK) 3.5 05:29:17 30° SW 05:31:17 79° SE 05:44:46 10° ENE
DELTA 2 R/B (1) 3.8 05:30:36 28° SW 05:33:25 61° SSE 05:38:54 10° E
PSLV R/B 3.8 05:29:54 10° N 05:34:05 49° WNW 05:36:11 26° SW
Nadezhda 1 Rocket 4.1 05:30:07 18° SSW 05:34:28 50° WNW 05:40:21 10° N
ADEOS II 2.3 05:29:47 10° N 05:34:53 51° WNW 05:38:23 19° SW
Cosmos 1777 Rocket 4.5 05:35:01 10° NW 05:39:50 36° W 05:44:37 10° SSW
Cosmos 2341 Rocket 3.9 05:38:20 10° N 05:44:37 85° W 05:50:50 10° S
Cosmos 2333 4.1 05:40:08 10° SSW 05:45:42 80° WNW 05:51:27 10° NNE
Cosmos 1500 4.3 05:45:35 10° NW 05:48:31 24° W 05:48:31 24° W
Cosmos 1844 4.1 05:43:30 10° NNW 05:49:16 67° ENE 05:54:55 10° SSE
BREEZE M DEB (TANK) 3.9 05:41:10 10° WNW 05:52:10 56° NNE 05:55:43 10° E
Meteor PRIRODA 3.9 05:50:57 10° N 05:54:34 47° WNW 05:58:11 10° SSW
CZ-4B R/B 3.9 05:50:25 10° N 05:55:32 36° WNW 06:00:13 12° SW
Okean O Rocket 3.1 05:57:58 10° NNW 06:01:05 19° WNW 06:02:40 16° W
Okean 2 4.0 05:57:47 10° S 06:01:51 60° E 06:05:59 10° NNE
Lacrosse 5 3.3 06:03:19 15° WSW 06:04:02 16° WSW 06:07:03 10° SSW
Aureole 2 Rocket 3.8 06:02:16 10° S 06:05:53 43° ESE 06:09:14 10° NNE
Meteor 1-23 Rocket 4.3 06:02:35 10° S 06:08:23 90° W 06:14:13 10° N
Cosmos 1980 4.1 06:03:55 10° S 06:09:30 67° ESE 06:15:07 10° NNE
Okean-O 2.8 06:05:22 10° N 06:09:42 53° WNW 06:14:00 10° SSW
Cosmos 1814 Rocket 4.4 06:05:04 10° S 06:10:14 68° ESE 06:15:22 10° NNE
CZ-4B R/B 4.3 06:05:53 10° N 06:10:16 51° WNW 06:14:37 10° SSW
COSMOS 2428 3.2 06:07:43 10° SW 06:13:05 42° WNW 06:18:29 10° N
ERS-2 3.0 06:10:33 10° N 06:13:51 31° WNW 06:17:06 10° SW
COSMO-SKYMED 1 2.7 06:10:38 10° SSE 06:14:58 80° ENE 06:19:19 10° N
Cosmos 1867 4.2 06:12:07 10° NNW 06:17:32 62° NE 06:22:54 10° SE
Cosmos 1238 Rocket 3.7 06:16:53 12° WSW 06:18:35 17° WNW 06:20:38 10° NNW
Cosmos 2285 Rocket 4.0 06:12:20 10° SSW 06:18:46 79° WNW 06:25:15 10° NNE
Cosmos 1437 2.7 06:17:40 10° S 06:20:56 89° WNW 06:24:13 10° N
Meteor 2-9 Rocket 4.2 06:17:24 10° NNW 06:23:01 62° W 06:28:28 10° S
Cosmos 2219 Rocket 2.3 06:18:18 10° SW 06:23:48 60° WNW 06:29:20 10° NNE
Meteor 1-15 Rocket 4.4 06:18:58 10° N 06:24:54 83° W 06:30:50 10° S
Geosat 4.1 06:19:54 10° SSE 06:24:56 89° ENE 06:30:00 10° NNW
Cosmos 2228 4.4 06:20:50 10° N 06:24:59 45° E 06:29:09 10° SSE
Cosmos 1726 Rocket 3.8 06:20:36 10° N 06:25:04 80° E 06:29:31 10° S
Radarsat Rocket 4.0 06:19:21 10° NNE 06:25:24 88° WNW 06:31:12 10° SSW
Meteor 1-28 Rocket 3.3 06:24:08 10° SSE 06:27:56 88° E 06:31:46 10° N
Cosmos 1892 Rocket 3.6 06:26:18 10° S 06:30:37 89° W 06:35:00 10° N
Cosmos 1025 Rocket 3.5 06:28:02 10° SSW 06:32:09 41° WNW 06:36:20 10° N
CZ-2C R/B 4.5 06:28:43 10° NNE 06:33:29 35° E 06:38:11 10° SSE
Tiangong 2 1.0 06:30:23 10° WNW 06:33:31 77° SSW 06:36:39 10° ESE
Cosmos 1844 Rocket 3.1 06:29:02 10° NW 06:34:10 38° WSW 06:39:15 10° S
Thor Agena Rocket 3.9 06:29:54 10° S 06:34:39 41° W 06:39:26 10° NNW
Cosmos 1959 Rocket 4.5 06:31:35 10° NNW 06:37:36 64° W 06:43:37 10° S
